OneWeb SL0395

operational
NORAD ID: 50475 Int'l Des: 2021-132 Owner: ONEWEBN Country: UK Constellation: oneweb
LEOCIRCULARPOLARONEWEB_TYPE

OneWeb SL0395について

説明を読み込み中...

リアルタイム位置

3D地球を読み込み中...

次回通過

高度履歴

Altitude vs Time

uPlot chart will show altitude changes over time

軌道要素

1 50475U 21132G 26036.47882067 .00000517 00000-0 14228-2 0 9991
2 50475 87.8814 47.2806 0002054 94.4527 265.6835 13.11415662198450
Epoch: Feb 5, 2026 • Age: 5 hours

現在のステータス

高度 1248.0 km
速度 7.23 km/s
衛星直下点 -87.08°S, 110.14°W
打ち上げ日 Dec 27, 2021
運用期間 4.1 years
タイプ internet

技術仕様

分類 Payload
質量 148.00 kg
乾燥質量 140.00 kg
総質量 148.00 kg
長さ 1.30 m
直径 1.00 m
スパン 5.00 m
形状 Trapezoid+2 pan
製造者 ONEWUS
バスタイプ ARROW
フェーズステータス In Orbit
所有者/国 ONEWEBN/UK

大規模コンステレーション

Loading constellations...